Location: Newark
(45.5000°N, 11.4167°E)
Time: 04:00:23
(UTC+00:00)

Vanguard 3 - Pass Details

Date: 27 August 2019
Orbit: 508 x 3263 km, 33.4° (Epoch: 21 September)

Event Time Altitude Azimuth Distance (km) Brightness Sun altitude
Rises 14:40:13 0° 232° (SW) 5,938 12.5 33.9°
Reaches altitude 10° 14:45:25 10° 223° (SW) 4,428 12.0 33.1°
Maximum altitude 14:54:14 28° 172° (S) 2,360 9.9 31.6°
Drops below altitude 10° 14:59:56 10° 116° (ESE) 2,783 9.6 30.7°
Sets 15:02:25 0° 103° (ESE) 3,448 9.9 30.3°
